[[{"header":{"parameterUnit":"m.s-1","parameterCategory":1,"la1":30.2991,"la2":30.254,"lo1":-89.0895,"lo2":-89.0444,"dy":0.0017,"dx":0.0017,"nx":28,"ny":28,"refTime":"2025-01-28T09:00:00:Z","depth":0,"parameterNumber":2,"parameterNumberName":"U-component_of_WINDS"},"data":[0,0,0,0,0,0,0,0,0,0,0,0,0,0,0,0,0,0,0,0,0,0,0,0,0,0,0,0,0,0,0,0,0,0,0,0,0,0,0,0,0,0,0,0,0,0,0,0,0,0,0,0,0,0,0,0,0,0,0.2365,0.2366,0,0.2472,0.2473,0.2475,0.2524,0.2524,0.2524,0.2524,0.2635,0.2638,0.2641,0,0,0,0,0,0,0,0,0,0,0,0,0,0.2204,0.2207,0.2365,0.2366,0.2367,0.2472,0.2474,0.2475,0.2524,0.2524,0.2524,0.2524,0.2634,0.2638,0.2641,0,0,0,0,0,0,0,0,0,0,0,0,0,0.2289,0.2208,0.2365,0.2405,0.2409,0.2472,0.2474,0.2475,0.2524,0.2524,0.2524,0.2524,0.2633,0.2637,0.2642,0.2673,0,0,0.2656,0.2658,0,0,0,0,0,0,0,0,0.2284,0.2295,0.2397,0.2402,0.2407,0.2485,0.2458,0.2542,0.2524,0.2481,0.2524,0.2524,0.2585,0.2594,0.2614,0.2678,0.2683,0.2656,0.2659,0.2661,0.2662,0,0,0,0,0,0,0,0.2278,0.2291,0.2407,0.2399,0.2405,0.2418,0.243,0.2474,0.2533,0.2485,0.2488,0.25,0.2588,0.261,0.2617,0.2685,0.2656,0.266,0.2663,0.2665,0.278,0.2781,0,0,0,0,0,0,0.2266,0.2285,0.2404,0.2411,0.2344,0.2421,0.2434,0.246,0.2532,0.2543,0.25,0.2502,0.2602,0.2612,0.2621,0.2663,0.2661,0.2665,0.2668,0.278,0.2781,0.2781,0,0,0,0,0,0,0.2262,0.2276,0.24,0.2349,0.2366,0.2424,0.2452,0.2462,0.2484,0.2544,0.2555,0.2512,0.2602,0.2615,0.266,0.2668,0.2667,0.2672,0.278,0.278,0.2781,0.2746,0,0,0,0,0,0,0.2257,0.2274,0.2286,0.2349,0.2368,0.2436,0.2453,0.2464,0.2492,0.2495,0.2558,0.2568,0.2603,0.2653,0.2664,0.2674,0.2675,0.2779,0.278,0.2781,0.2747,0.2745,0.2744,0,0,0,0,0,0.2251,0.2272,0.2286,0.23,0.2384,0.2436,0.2447,0.2487,0.2492,0.2505,0.2544,0.2566,0.2665,0.2657,0.2671,0.2681,0.2779,0.278,0.2781,0.2747,0.2746,0.2744,0,0,0,0,0,0,0.2208,0.2281,0.2298,0.2339,0.2381,0.2444,0.2461,0.2484,0.2525,0.2527,0.2575,0.2589,0.263,0.266,0.265,0.2716,0.2724,0.2728,0.2694,0.2693,0.2692,0.2683,0.2679,0,0,0,0,0,0.2204,0.2239,0.2301,0.2332,0.2352,0.2403,0.2427,0.2454,0.2499,0.2517,0.256,0.2603,0.2644,0.267,0.2712,0.2751,0.2766,0.2766,0.2764,0.2763,0.2765,0.279,0.279,0.2783,0.2783,0.2783,0,0,0.2194,0.2239,0.2258,0.2324,0.236,0.2396,0.2417,0.2455,0.2482,0.2523,0.2568,0.2601,0.2653,0.2696,0.2717,0.2722,0.2771,0.2764,0.2762,0.2766,0.2791,0.2791,0.2792,0.2784,0.2784,0.2784,0,0,0.2196,0.2233,0.2263,0.2298,0.2352,0.2386,0.2393,0.2453,0.2476,0.2522,0.2554,0.2588,0.2658,0.2694,0.2721,0.2737,0.276,0.275,0.2742,0.2766,0.2766,0.2767,0.2773,0.2775,0.2752,0.2752,0.2752,0,0.2178,0.2233,0.2275,0.2311,0.234,0.2379,0.241,0.2442,0.2507,0.2526,0.2531,0.262,0.2658,0.271,0.2714,0.2735,0.2745,0.2743,0.2763,0.2764,0.2765,0.2772,0.2774,0.275,0.275,0.2751,0.2751,0,0.2209,0.2247,0.2265,0.2326,0.2356,0.239,0.2437,0.2463,0.2488,0.2522,0.2569,0.2616,0.2667,0.2682,0.2706,0.2738,0.274,0.2753,0.2763,0.2763,0.2771,0.2774,0.2748,0.2749,0.2749,0.2749,0,0,0.2186,0.227,0.2276,0.2305,0.2367,0.2398,0.2433,0.2484,0.2505,0.2549,0.258,0.2639,0.2652,0.2683,0.2712,0.2732,0.2743,0.2744,0.2746,0.2743,0.2782,0.2771,0.2773,0.2759,0.2759,0.276,0.2778,0,0.2196,0.2261,0.23,0.2349,0.2386,0.2424,0.2455,0.2497,0.253,0.2566,0.2602,0.2643,0.2657,0.2676,0.2698,0.2737,0.2752,0.2737,0.2789,0.279,0.2775,0.2777,0.2766,0.278,0.2781,0.2781,0.2782,0,0.2217,0.226,0.2312,0.2372,0.2388,0.2415,0.2465,0.2499,0.2548,0.257,0.2605,0.2635,0.2675,0.2681,0.2737,0.2726,0.275,0.2772,0.2774,0.278,0.2786,0.2784,0.2786,0.2788,0.2786,0.2786,0.2786,0,0.2195,0.2266,0.2307,0.233,0.24,0.2419,0.2449,0.2498,0.2526,0.2569,0.2588,0.2636,0.2662,0.2699,0.2741,0.2742,0.2793,0.2803,0.2814,0.2813,0.2823,0.2822,0.2829,0.2838,0.2838,0.2838,0.2838,0,0.2203,0.2234,0.2298,0.2323,0.2359,0.2405,0.2439,0.2473,0.2516,0.2549,0.2585,0.2615,0.2669,0.2706,0.2739,0.2781,0.2792,0.2812,0.2821,0.2809,0.2806,0.2825,0.2825,0.2838,0.2838,0.2838,0.2838,0,0.2185,0.2229,0.2276,0.2339,0.2355,0.2379,0.2433,0.246,0.2495,0.2536,0.2548,0.2603,0.2649,0.2694,0.2756,0.2778,0.282,0.2831,0.2803,0.2807,0.2816,0.2815,0.2836,0.2841,0.2846,0.2846,0.2846,0,0.2187,0.2211,0.2277,0.2301,0.2331,0.237,0.2399,0.2445,0.2473,0.2532,0.2551,0.2599,0.264,0.2712,0.2758,0.2805,0.2818,0.2822,0.2825,0.2813,0.2819,0.2817,0.282,0.2821,0.282,0.282,0.282,0,0.2185,0.2206,0.2246,0.2294,0.2328,0.2368,0.2409,0.2428,0.2482,0.2513,0.256,0.2591,0.2654,0.2702,0.2755,0.2787,0.2813,0.2819,0.2824,0.2812,0.2795,0.2805,0.2799,0.2818,0.2818,0.2818,0.2818,0.2818,0.2178,0.2202,0.2252,0.2296,0.2332,0.237,0.2398,0.2436,0.2476,0.2531,0.2556,0.2603,0.2653,0.2727,0.2759,0.2797,0.2804,0.2811,0.2813,0.2814,0.2812,0.2789,0.2807,0.2807,0.2807,0.2807,0.2807,0,0.2179,0.2213,0.2253,0.231,0.2344,0.2365,0.2413,0.2441,0.2482,0.2526,0.2565,0.262,0.2667,0.2717,0.2766,0.2788,0.2801,0.2799,0.2798,0.2805,0.2802,0.2793,0.2788,0.2788,0.2788,0.2788,0.2788,0.2788,0.2183,0.2225,0.2252,0.2313,0.2347,0.2394,0.2419,0.2455,0.249,0.2549,0.2588,0.262,0.2667,0.2721,0.2765,0.2779,0.2796,0.2791,0.2808,0.2804,0.2805,0.2807,0.2798,0.2794,0.2794,0.2808,0.2808,0.2808]},{"header":{"parameterUnit":"m.s-1","parameterCategory":1,"la1":30.2991,"la2":30.254,"lo1":-89.0895,"lo2":-89.0444,"dy":0.0017,"dx":0.0017,"nx":28,"ny":28,"refTime":"2025-01-28T09:00:00:Z","depth":0,"parameterNumber":3,"parameterNumberName":"V-component_of_WINDS"},"data":[0,0,0,0,0,0,0,0,0,0,0,0,0,0,0,0,0,0,0,0,0,0,0,0,0,0,0,0,0,0,0,0,0,0,0,0,0,0,0,0,0,0,0,0,0,0,0,0,0,0,0,0,0,0,0,0,0,0,-0.2396,-0.2396,0,-0.2391,-0.2391,-0.2391,-0.2384,-0.2384,-0.2384,-0.2384,-0.2378,-0.2378,-0.2378,0,0,0,0,0,0,0,0,0,0,0,0,0,-0.2399,-0.2399,-0.2396,-0.2396,-0.2396,-0.2391,-0.2391,-0.2391,-0.2384,-0.2384,-0.2384,-0.2383,-0.2378,-0.2378,-0.2378,0,0,0,0,0,0,0,0,0,0,0,0,0,-0.2396,-0.2399,-0.2396,-0.2392,-0.2391,-0.2391,-0.2391,-0.2391,-0.2384,-0.2384,-0.2384,-0.2383,-0.2378,-0.2378,-0.2378,-0.2381,0,0,-0.2378,-0.2378,0,0,0,0,0,0,0,0,-0.2397,-0.2396,-0.2392,-0.2392,-0.2392,-0.2388,-0.239,-0.2387,-0.2384,-0.2387,-0.2384,-0.2383,-0.2381,-0.2381,-0.2381,-0.2381,-0.2381,-0.2378,-0.2378,-0.2378,-0.2378,0,0,0,0,0,0,0,-0.2397,-0.2396,-0.2394,-0.2392,-0.2392,-0.239,-0.2389,-0.2389,-0.2385,-0.2386,-0.2386,-0.2385,-0.2381,-0.2381,-0.238,-0.238,-0.2378,-0.2378,-0.2378,-0.2378,-0.2383,-0.2383,0,0,0,0,0,0,-0.2398,-0.2397,-0.2394,-0.2394,-0.2394,-0.239,-0.2389,-0.2389,-0.2385,-0.2384,-0.2386,-0.2385,-0.2381,-0.238,-0.238,-0.2383,-0.2378,-0.2378,-0.2378,-0.2383,-0.2383,-0.2383,0,0,0,0,0,0,-0.2398,-0.2397,-0.2394,-0.2395,-0.2394,-0.239,-0.239,-0.2389,-0.2389,-0.2384,-0.2384,-0.2386,-0.2381,-0.238,-0.2381,-0.2383,-0.2378,-0.2378,-0.2383,-0.2383,-0.2383,-0.239,0,0,0,0,0,0,-0.2398,-0.2398,-0.2399,-0.2395,-0.2394,-0.2395,-0.239,-0.2389,-0.2388,-0.2388,-0.2384,-0.2384,-0.238,-0.2381,-0.2381,-0.2383,-0.2378,-0.2382,-0.2383,-0.2383,-0.2389,-0.239,-0.2391,0,0,0,0,0,-0.2398,-0.2401,-0.2399,-0.2398,-0.2396,-0.2395,-0.2395,-0.2391,-0.2389,-0.239,-0.2387,-0.2384,-0.2383,-0.2381,-0.2381,-0.2383,-0.2382,-0.2383,-0.2383,-0.2389,-0.239,-0.2391,0,0,0,0,0,0,-0.2404,-0.24,-0.2398,-0.24,-0.2398,-0.2394,-0.2395,-0.2392,-0.2391,-0.2391,-0.2386,-0.2385,-0.2387,-0.2385,-0.2383,-0.2386,-0.2382,-0.2382,-0.2387,-0.2388,-0.2389,-0.2389,-0.2378,0,0,0,0,0,-0.2406,-0.2406,-0.2402,-0.2404,-0.2403,-0.2399,-0.2399,-0.2396,-0.2394,-0.2394,-0.2391,-0.2389,-0.2388,-0.2388,-0.2387,-0.2389,-0.2388,-0.2391,-0.2391,-0.2392,-0.2392,-0.2393,-0.2394,-0.2385,-0.2385,-0.2385,0,0,-0.2409,-0.2407,-0.2407,-0.2405,-0.2404,-0.2404,-0.2399,-0.2399,-0.2399,-0.2394,-0.2394,-0.2392,-0.239,-0.2391,-0.2392,-0.239,-0.2395,-0.2393,-0.2393,-0.2393,-0.2394,-0.2395,-0.2396,-0.2385,-0.2385,-0.2385,0,0,-0.2415,-0.2414,-0.2415,-0.2413,-0.2411,-0.2409,-0.2409,-0.2406,-0.2404,-0.2405,-0.2401,-0.24,-0.2399,-0.2398,-0.2397,-0.2403,-0.2399,-0.2402,-0.2407,-0.2408,-0.2408,-0.2409,-0.2411,-0.2412,-0.2403,-0.2403,-0.2403,0,-0.242,-0.242,-0.2416,-0.2416,-0.2416,-0.2411,-0.2412,-0.2411,-0.2408,-0.2408,-0.2406,-0.2404,-0.2402,-0.2403,-0.2405,-0.2404,-0.2404,-0.2403,-0.2409,-0.2409,-0.241,-0.2411,-0.2412,-0.2403,-0.2403,-0.2403,-0.2403,0,-0.2425,-0.2425,-0.2426,-0.2424,-0.2424,-0.2424,-0.2421,-0.2421,-0.2418,-0.2416,-0.2416,-0.2414,-0.2413,-0.2413,-0.241,-0.2413,-0.2412,-0.2409,-0.2406,-0.2411,-0.2413,-0.2413,-0.2404,-0.2403,-0.2403,-0.2403,0,0,-0.2435,-0.2431,-0.2431,-0.243,-0.2427,-0.2427,-0.2428,-0.2426,-0.2426,-0.2425,-0.2425,-0.2425,-0.2422,-0.2421,-0.2418,-0.2419,-0.2424,-0.2416,-0.2416,-0.2418,-0.2427,-0.2429,-0.243,-0.2422,-0.2422,-0.2422,-0.2427,0,-0.244,-0.2441,-0.2438,-0.2439,-0.2439,-0.2435,-0.2436,-0.2434,-0.2432,-0.2431,-0.2429,-0.2429,-0.2426,-0.2425,-0.2426,-0.2423,-0.2426,-0.2423,-0.2422,-0.2422,-0.2422,-0.2431,-0.2433,-0.2438,-0.2428,-0.2428,-0.2428,0,-0.2446,-0.2445,-0.2447,-0.2444,-0.2444,-0.2444,-0.2443,-0.2443,-0.2441,-0.2439,-0.2438,-0.2435,-0.2436,-0.2432,-0.2433,-0.2431,-0.243,-0.2429,-0.2429,-0.2429,-0.2425,-0.243,-0.2439,-0.244,-0.2429,-0.2429,-0.2429,0,-0.2453,-0.2452,-0.2453,-0.2452,-0.2449,-0.2449,-0.2448,-0.2446,-0.2445,-0.2444,-0.2444,-0.2442,-0.2442,-0.2441,-0.2438,-0.2436,-0.2438,-0.2435,-0.2437,-0.2437,-0.2438,-0.2438,-0.2446,-0.2438,-0.2438,-0.2438,-0.2438,0,-0.2459,-0.246,-0.2456,-0.2456,-0.2458,-0.2454,-0.2455,-0.2453,-0.2452,-0.2452,-0.2448,-0.2448,-0.2444,-0.2444,-0.2441,-0.2442,-0.2442,-0.244,-0.2439,-0.244,-0.2441,-0.244,-0.2439,-0.2438,-0.2438,-0.2438,-0.2438,0,-0.2467,-0.2464,-0.2464,-0.2461,-0.2461,-0.2462,-0.2459,-0.2459,-0.2457,-0.2457,-0.2457,-0.2454,-0.2453,-0.245,-0.2448,-0.2447,-0.2448,-0.2447,-0.2449,-0.2449,-0.2451,-0.2451,-0.2459,-0.246,-0.2451,-0.2451,-0.2451,0,-0.2471,-0.2472,-0.2469,-0.2468,-0.2467,-0.2467,-0.2467,-0.2463,-0.2463,-0.2461,-0.2461,-0.246,-0.2459,-0.2459,-0.2456,-0.2455,-0.2454,-0.2457,-0.2453,-0.2454,-0.2453,-0.2453,-0.2453,-0.2457,-0.2457,-0.2458,-0.2458,0,-0.2478,-0.2477,-0.2476,-0.2475,-0.2475,-0.2474,-0.2472,-0.2473,-0.2469,-0.2468,-0.2468,-0.2467,-0.2466,-0.2465,-0.2464,-0.2462,-0.2459,-0.2459,-0.2459,-0.246,-0.2461,-0.2461,-0.2451,-0.2458,-0.2458,-0.2458,-0.2458,-0.2458,-0.2484,-0.2485,-0.2483,-0.2482,-0.2481,-0.248,-0.248,-0.2478,-0.2478,-0.2476,-0.2474,-0.2474,-0.2472,-0.247,-0.2469,-0.2468,-0.2467,-0.2467,-0.2467,-0.2468,-0.2468,-0.2461,-0.2468,-0.2468,-0.2468,-0.2468,-0.2468,0,-0.2491,-0.249,-0.249,-0.2488,-0.2488,-0.2485,-0.2484,-0.2483,-0.2483,-0.2482,-0.2481,-0.248,-0.248,-0.2477,-0.2476,-0.2476,-0.2475,-0.2476,-0.2476,-0.2476,-0.247,-0.2469,-0.2477,-0.2477,-0.2477,-0.2477,-0.2477,-0.2477,-0.2495,-0.2496,-0.2494,-0.2494,-0.2493,-0.2493,-0.2492,-0.2491,-0.249,-0.2489,-0.2489,-0.2487,-0.2485,-0.2484,-0.2483,-0.2482,-0.2482,-0.2484,-0.2483,-0.2477,-0.2476,-0.2475,-0.2475,-0.2484,-0.2484,-0.2489,-0.2489,-0.2489]}]]